Starlink 2428

operational
NORAD ID: 48099 Int'l Des: 2021-027 Owner: SPXS Country: US Constellation: starlink
LEOCIRCULARSTARLINK_TYPE

Starlink 2428について

説明を読み込み中...

リアルタイム位置

3D地球を読み込み中...

次回通過

高度履歴

Altitude vs Time

uPlot chart will show altitude changes over time

軌道要素

1 48099U 21027H 25299.47362427 .00003316 00000-0 24133-3 0 9993
2 48099 53.0560 54.1320 0001362 95.5986 264.5158 15.06405959252183
Epoch: Oct 26, 2025 • Age: 7 hours

現在のステータス

高度 551.3 km
速度 7.59 km/s
衛星直下点 -14.74°S, 70.46°W
打ち上げ日 Apr 7, 2021
運用期間 4.5 years
タイプ internet

技術仕様

分類 Payload
質量 260.00 kg
乾燥質量 248.00 kg
総質量 260.00 kg
長さ 0.20 m
直径 2.80 m
スパン 9.00 m
形状 Box + pan
製造者 SPXS
バスタイプ Starlink
フェーズステータス In Orbit
所有者/国 SPXS/US

大規模コンステレーション

Loading constellations...